Location: Chefe Valiua
(16.5342°S, 37.2214°E)
Time: 14:42:04
(UTC+00:00)

Envisat - Pass Details

Date: 22 June 2021
Orbit: 764 x 766 km, 98.1° (Epoch: 25 July)

Event Time Altitude Azimuth Distance (km) Brightness Sun altitude
Rises 01:28:54 0° 42° (NE) 3,214 7.0 -34.5°
Reaches altitude 10° 01:31:40 10° 57° (ENE) 2,295 6.2 -33.9°
Maximum altitude 01:35:29 22° 106° (ESE) 1,630 5.1 -33.0°
Enters shadow 01:38:16 14° 146° (SSE) 2,019 5.3 -32.4°
